Temp
14 14 15 17 18 19 18 19 19 21 21 22 22 22 23 22 22 24 24 25 26 25 25 25 28 29 30 30 29 29 28 27 25 21 20 19 19 18 18 19 19 20 19 19
14 14 16 18 17 17 17 17 17 18 20 20 20 19 19 21 21 21 23 23 23 23 21 23 25 27 27 28 30 30 27 25 26 24 21 21 19 19 20 20 20 20 20 20
12 15 17 17 17 16 16 16 17 18 19 19 19 19 20 21 20 21 22 22 21 22 21 22 22 24 27 27 28 28 26 24 24 22 21 21 19 19 18 18 19 20 20 20
13 15 16 16 16 16 15 17 18 18 18 16 20 18 20 21 21 21 22 23 23 20 21 22 21 21 25 28 26 26 24 22 21 21 21 21 20 18 19 20 20 20 20 20
14 16 15 15 16 16 16 19 17 18 17 17 18 16 19 20 19 21 22 23 23 21 22 20 20 21 25 25 24 22 21 21 20 21 22 21 20 20 21 20 20 20 21 21
14 16 16 16 17 17 18 16 16 16 15 13 16 17 19 20 21 22 22 22 20 20 19 19 19 21 21 21 20 19 19 19 20 21 22 22 21 20 20 20 20 20 20 20
14 14 15 17 16 16 17 13 12 13 12 15 17 16 20 20 21 21 21 20 19 19 19 18 19 18 17 17 17 18 19 18 20 21 21 21 21 21 21 20 19 19 19 18
12 13 15 16 15 14 13 13 12 14 13 15 17 16 19 20 22 23 23 20 20 19 18 18 18 17 16 16 17 18 18 18 19 20 20 20 21 21 21 21 20 19 19 19
11 13 14 16 17 16 14 13 14 14 15 14 15 17 19 21 22 22 21 21 20 19 18 19 18 15 16 16 17 18 18 19 19 20 20 20 21 21 20 20 19 19 19 18
12 13 14 16 16 16 15 15 14 11 14 14 15 16 18 19 20 22 20 19 19 19 18 17 15 15 16 16 17 18 19 19 19 20 20 20 20 20 20 20 19 19 18 18
11 11 12 14 14 14 14 14 14 13 12 14 15 15 16 19 21 21 19 18 18 17 15 15 16 16 16 16 16 17 18 18 18 19 19 19 19 19 19 19 19 18 17 17
10 9 10 11 13 13 14 14 13 13 14 15 13 14 18 19 18 18 18 19 20 16 16 17 17 16 16 16 16 16 17 18 18 19 19 19 19 19 18 18 18 17 17 17
11 9 9 11 13 12 12 13 13 12 11 12 15 15 18 18 19 18 17 19 18 17 16 17 17 17 16 16 16 16 17 18 18 19 19 19 19 18 18 18 17 17 17 17
11 9 9 9 12 11 11 12 12 11 11 13 15 16 18 19 19 17 18 18 17 17 16 17 17 17 16 16 16 16 17 18 18 19 19 19 19 18 18 17 17 18 18 18
10 10 10 10 10 11 11 11 11 11 13 12 15 15 16 16 16 17 17 18 18 17 16 16 16 16 16 16 17 17 18 18 19 19 19 19 18 18 17 17 17 18 18 18
9 9 9 10 11 11 11 12 12 12 12 13 13 13 15 16 17 17 18 18 19 19 18 17 17 17 17 17 17 17 17 18 19 19 18 18 18 17 17 17 17 18 17 18
9 9 9 9 11 11 10 11 12 13 13 13 12 14 15 16 16 17 18 18 18 19 19 18 18 18 17 17 17 17 18 19 18 18 18 18 17 17 17 17 17 17 17 17
9 8 9 9 8 9 13 13 13 13 13 14 14 15 16 16 15 16 16 17 18 19 19 19 18 18 18 18 18 18 19 18 18 18 18 17 17 17 17 17 17 16 16 17
9 10 9 8 8 11 13 11 11 11 12 14 14 14 15 15 14 15 17 18 17 18 19 19 19 18 18 18 18 18 17 18 18 17 18 17 17 17 17 16 16 16 16 16
9 10 9 9 10 11 10 9 9 10 12 12 13 13 14 14 14 17 17 18 17 19 19 19 19 18 18 18 18 17 17 17 17 18 18 18 18 18 17 17 16 16 15 16
9 9 9 10 10 10 9 9 8 12 12 11 12 12 13 13 13 13 14 15 17 18 19 19 19 18 18 18 18 17 16 17 19 19 19 18 18 18 17 17 16 15 15 15
9 10 11 10 10 11 10 8 9 8 9 11 12 12 12 12 12 13 15 16 17 19 19 20 19 18 18 18 18 16 17 19 19 19 19 18 18 17 17 16 15 15 15 14
9 10 10 9 10 10 10 7 7 8 9 11 11 11 11 12 12 14 15 16 17 17 18 19 19 17 17 18 19 17 18 19 19 19 19 19 18 17 17 16 15 14 14 13
10 10 10 11 11 11 10 10 9 9 9 10 10 11 11 12 13 14 14 16 17 17 18 19 18 17 16 18 19 20 19 19 19 19 18 18 17 16 16 15 14 14 14 13
9 9 11 11 12 11 11 10 10 10 10 10 10 11 11 12 14 14 14 15 17 18 18 19 19 18 18 18 19 20 20 20 19 19 18 17 17 16 15 14 14 14 14 15
9 10 10 10 11 10 10 10 10 10 10 10 10 11 12 13 15 15 15 15 17 18 18 18 18 18 18 19 19 20 21 20 19 17 17 17 17 16 15 14 14 14 15 14
Height
735 739 729 712 714 722 728 730 732 724 721 721 721 712 712 711 708 705 700 695 690 687 682 682 680 678 677 675 674 670 670 671 674 680 688 691 694 698 703 708 712 715 718 722
739 729 723 720 725 728 731 737 739 731 723 723 727 724 720 712 707 703 696 691 690 686 684 678 675 672 671 670 668 666 666 668 669 676 680 685 690 696 701 705 709 713 716 720
744 727 718 721 724 730 733 738 737 737 729 723 728 720 713 703 699 693 687 685 683 680 682 676 670 666 665 664 662 662 663 664 668 673 678 683 689 695 699 703 707 711 715 719
734 722 720 723 726 726 737 728 728 733 740 749 722 729 710 698 694 690 682 675 673 678 673 667 665 662 658 656 656 657 658 661 665 669 675 678 683 690 693 699 705 711 715 718
726 718 721 723 724 721 729 720 728 729 738 740 737 749 699 694 693 680 672 665 663 667 661 660 658 655 653 653 653 655 657 659 664 668 675 679 684 689 693 701 707 711 714 718
721 714 714 715 713 715 714 725 733 737 746 756 737 744 688 692 675 666 664 661 660 660 658 653 649 650 650 650 652 654 656 660 665 670 676 679 683 689 695 701 706 710 714 716
717 718 712 711 719 716 718 735 759 761 761 740 723 737 684 670 664 664 664 660 658 656 655 650 648 648 648 650 652 655 658 661 667 671 676 681 685 690 696 700 705 709 712 715
724 726 713 707 715 722 728 733 746 739 746 732 720 722 681 665 656 656 656 659 657 654 651 645 642 642 645 649 651 654 659 662 667 673 677 682 686 691 696 700 704 708 712 715
736 720 712 706 704 711 720 730 722 731 728 735 718 695 672 662 657 654 659 659 656 651 643 637 634 637 640 646 650 654 659 665 669 674 678 682 687 692 696 701 705 709 712 714
732 724 716 709 705 705 711 711 726 746 733 731 714 702 688 671 665 654 662 661 654 645 640 634 632 634 639 644 649 655 660 665 671 676 681 684 689 694 698 701 705 708 711 713
736 735 724 718 717 715 718 720 718 727 732 722 718 701 672 659 658 662 665 660 656 647 641 635 634 637 641 645 650 656 662 667 673 679 684 687 691 695 699 702 705 708 711 713
741 745 742 730 717 716 717 719 721 725 718 713 724 707 661 661 662 663 663 654 648 646 643 639 640 641 644 648 652 657 663 669 676 681 685 689 692 696 700 703 705 708 711 714
740 748 748 731 720 719 721 719 722 724 726 720 712 687 659 657 656 660 663 654 651 648 644 643 644 647 648 649 654 659 666 672 677 682 686 691 694 697 700 703 705 708 711 714
739 747 743 748 725 725 727 722 721 725 729 707 687 688 673 663 662 664 660 656 653 649 649 646 648 650 652 652 656 662 668 674 679 683 687 691 695 697 700 703 705 708 711 714
739 738 736 735 729 725 725 722 718 720 711 710 683 687 686 675 672 667 662 656 649 649 650 647 648 652 654 656 658 664 669 675 679 684 688 692 696 698 701 703 706 708 711 714
740 737 736 730 719 717 718 711 710 707 703 693 694 689 688 679 663 663 658 654 647 645 644 644 646 649 653 658 658 664 670 675 679 684 688 693 696 699 701 703 705 709 712 714
740 738 735 733 714 713 720 700 697 689 686 683 685 683 683 678 666 658 653 647 644 638 636 638 641 644 650 656 658 663 669 675 680 684 689 693 696 698 700 703 706 709 712 714
732 736 732 731 734 729 686 681 681 676 671 670 672 673 670 665 663 656 652 650 641 633 631 633 636 642 648 655 660 663 670 675 680 685 689 693 696 698 700 704 707 710 712 715
726 725 728 732 727 697 681 691 690 687 672 667 665 669 666 661 662 644 639 638 633 627 625 628 634 640 646 654 659 663 670 675 680 684 689 692 695 698 701 704 707 710 713 715
718 721 723 719 714 699 698 704 701 694 672 669 667 666 663 664 660 637 630 628 626 620 621 625 631 638 645 654 658 663 669 674 679 683 687 691 695 698 701 704 707 711 714 715
715 720 717 710 705 696 703 700 700 676 676 673 666 665 663 662 653 644 634 628 621 617 617 623 629 636 644 651 657 663 668 673 676 682 686 690 695 699 702 704 707 711 713 715
719 710 703 704 696 689 695 701 694 691 681 672 665 663 661 656 648 638 629 622 619 615 618 622 628 635 642 650 656 662 667 670 676 682 686 690 695 699 702 704 707 711 713 716
721 717 711 714 703 695 693 697 695 689 681 669 667 661 657 647 641 633 625 617 615 616 618 622 628 636 642 649 653 659 664 670 676 681 685 690 695 699 702 704 707 711 714 717
715 710 709 701 689 685 685 684 685 681 675 668 664 653 647 644 636 628 623 615 614 614 617 621 629 639 643 648 652 657 663 669 674 680 684 690 695 699 702 705 708 711 714 717
719 714 702 696 686 682 677 678 675 671 667 662 654 651 646 639 629 625 621 614 609 612 615 618 627 636 639 644 650 656 662 667 673 678 684 689 694 698 702 706 708 711 714 717
714 710 706 699 694 688 680 675 673 668 664 660 655 644 637 632 625 622 615 611 609 609 607 620 630 633 637 642 648 654 660 666 671 677 683 688 692 697 701 705 708 711 714 717
Wind_Speed
5 5 16 30 26 8 3 11 2 3 5 8 19 22 16 9 11 17 18 20 21 21 15 17 27 32 38 33 33 29 26 20 21 23 23 21 24 23 21 20 21 22 23 24
5 15 10 2 5 5 2 3 1 4 4 2 6 11 9 6 10 11 16 17 16 15 8 11 23 30 30 31 30 27 21 19 22 26 25 13 19 20 19 17 18 20 22 22
6 7 8 8 5 8 5 5 3 2 7 6 5 14 10 7 11 13 16 13 11 13 10 13 13 19 29 30 32 25 22 20 22 24 19 14 14 11 16 19 20 20 21 21
6 6 4 2 6 6 5 7 5 6 5 6 2 12 13 9 15 13 18 18 17 9 13 15 9 12 25 33 27 20 17 17 20 19 21 23 20 14 14 21 20 20 19 18
7 1 4 5 5 7 7 2 4 2 3 3 2 4 6 5 11 17 19 21 19 13 16 13 12 14 27 24 20 15 15 17 20 21 23 26 24 17 21 20 20 18 14 15
5 1 2 5 4 7 4 6 2 2 3 4 6 6 18 9 15 13 14 15 11 10 10 11 10 15 17 10 10 14 18 19 23 24 25 25 26 22 22 19 17 15 13 13
1 6 4 4 2 1 2 5 2 2 3 11 13 9 21 5 3 3 6 7 8 9 9 9 9 7 7 10 14 18 21 23 23 23 24 22 22 22 23 22 19 17 15 14
5 3 5 4 8 6 6 7 5 6 4 4 8 11 9 14 24 22 13 8 7 9 9 10 10 8 7 14 19 20 23 25 23 23 21 19 19 19 18 17 17 15 13 11
5 3 5 6 2 8 4 4 5 3 2 1 4 7 11 14 19 11 5 6 9 10 10 11 8 7 12 16 20 25 26 24 22 21 21 20 18 18 18 16 14 11 9 8
4 3 4 4 3 4 4 5 3 2 4 4 5 6 8 8 8 14 8 8 10 11 11 10 5 9 12 19 24 26 28 26 24 23 22 22 21 19 18 15 12 9 9 10
5 3 6 2 3 3 3 2 2 4 5 4 2 5 7 14 2 5 6 8 10 10 8 3 6 10 15 20 24 26 27 26 26 25 23 22 19 17 15 12 10 10 11 13
3 1 3 6 6 3 1 3 1 4 7 7 3 7 2 6 5 5 8 13 13 5 4 3 6 10 13 17 20 24 27 29 27 24 22 21 19 16 13 11 10 12 14 12
1 2 2 6 1 3 2 2 4 1 0 7 7 7 3 7 13 8 10 14 11 4 3 4 7 9 9 15 18 21 26 28 25 23 21 19 16 14 11 11 13 14 12 11
4 3 5 5 3 2 2 6 7 4 4 7 20 15 19 21 20 15 17 14 9 5 4 6 7 8 7 15 18 20 24 26 23 23 20 17 16 14 12 12 13 14 13 11
4 5 6 10 13 11 9 12 12 13 13 9 17 15 7 18 16 15 12 14 10 6 6 7 8 6 6 12 17 20 25 26 23 21 18 17 15 12 12 12 13 13 13 10
3 3 2 10 12 11 13 14 15 18 19 21 19 21 10 18 17 13 13 11 12 11 11 10 10 10 10 12 18 21 24 25 22 20 19 17 14 14 13 12 13 13 11 9
3 2 1 5 5 7 8 18 17 20 21 17 21 11 8 15 16 14 12 10 13 14 11 13 14 13 11 16 21 21 26 25 22 20 18 18 17 15 13 12 12 12 11 11
5 5 2 4 2 5 6 1 6 15 21 20 14 8 11 14 8 16 16 15 12 12 12 13 13 12 17 19 20 26 28 26 23 20 19 19 18 15 14 12 12 11 12 15
15 6 2 3 3 9 6 6 6 6 6 8 5 6 6 10 13 22 17 14 10 9 11 11 15 18 19 22 27 27 24 24 22 20 21 20 19 17 15 14 12 13 15 14
13 12 6 3 5 4 3 5 10 9 7 6 6 6 9 11 7 9 4 5 8 9 10 11 18 20 21 21 28 25 21 21 19 22 23 20 19 17 17 15 14 12 13 12
2 2 11 10 5 2 2 11 9 6 3 13 7 9 10 9 8 16 19 12 5 6 12 19 22 19 21 27 28 20 20 19 26 23 21 19 18 17 16 14 13 12 12 11
3 3 2 2 5 2 4 7 3 7 14 15 10 8 11 13 14 15 14 9 6 7 9 18 15 16 24 29 27 19 20 27 24 23 21 18 18 16 16 15 13 13 13 12
3 1 4 2 3 10 11 9 11 13 16 7 11 12 11 14 13 15 9 6 5 5 7 15 15 14 22 27 27 21 23 24 24 24 21 18 18 16 17 16 14 13 12 11
4 1 3 6 3 8 5 6 9 10 13 11 11 15 14 15 14 11 7 4 5 7 9 14 16 10 13 24 27 28 27 26 26 25 21 20 20 17 17 14 13 13 14 12
4 5 5 6 8 16 4 12 10 12 12 13 16 14 15 14 13 8 5 3 1 10 11 16 13 15 19 25 26 26 28 28 26 25 23 22 21 19 17 12 12 12 14 15
2 3 3 6 13 11 14 14 13 12 12 14 18 20 20 12 10 7 4 4 3 4 13 12 14 16 18 23 25 28 29 31 28 22 22 24 23 20 15 14 11 8 6 10
Wind_Direction
250 195 205 205 211 203 60 213 138 148 261 186 225 256 257 251 262 268 271 272 275 278 284 278 283 284 288 292 300 292 284 267 225 207 205 209 211 215 222 228 233 231 224 218
256 232 223 161 192 203 117 112 207 285 255 183 283 276 277 243 256 246 253 257 257 269 278 278 275 276 280 290 292 291 284 245 216 212 209 198 202 214 217 219 222 222 214 208
243 274 183 199 174 205 222 206 177 191 323 282 294 286 267 242 234 248 256 253 250 254 254 261 262 270 283 286 287 289 279 239 216 209 198 181 172 171 189 205 209 210 205 205
230 260 160 26 221 154 189 172 169 195 175 247 110 282 264 264 263 254 260 260 258 226 244 251 257 272 276 283 294 286 253 218 200 194 189 175 167 160 182 185 192 190 191 199
238 277 180 173 188 189 222 145 164 186 249 294 205 296 287 217 259 255 254 256 255 227 236 245 244 251 273 286 281 253 205 184 178 173 180 168 162 161 162 168 175 182 190 198
229 313 198 172 193 191 158 141 117 85 122 260 175 181 275 251 251 252 249 263 249 242 243 247 258 268 274 270 227 192 175 165 168 171 172 166 160 150 153 163 170 179 187 194
346 252 218 154 228 43 91 78 96 124 192 233 161 179 240 306 184 239 246 289 277 265 272 268 262 246 236 203 180 172 167 156 163 167 167 164 160 157 164 165 166 165 168 175
176 258 179 192 184 189 173 166 167 173 201 216 151 222 241 235 254 261 276 291 309 297 264 257 249 226 194 173 164 158 157 149 155 157 157 157 156 162 164 166 169 169 174 180
351 306 332 53 49 151 183 161 195 44 277 111 218 287 293 276 282 269 302 338 295 282 282 271 243 183 157 156 155 154 151 150 154 154 154 153 157 159 155 153 157 166 180 187
315 275 114 317 2 260 166 172 119 356 219 240 260 259 236 318 264 275 353 324 308 307 296 280 185 147 144 144 152 155 156 152 152 150 149 149 150 150 150 157 164 172 173 170
15 59 306 3 200 211 36 288 166 164 177 212 295 264 220 224 172 16 299 296 298 303 316 44 133 139 137 139 142 146 151 152 152 150 147 145 147 150 155 161 166 171 163 161
352 77 269 258 266 334 92 267 268 178 241 248 138 270 357 107 85 33 354 337 335 340 356 94 140 140 137 136 136 142 150 152 153 150 148 147 148 155 161 163 168 164 157 159
282 276 308 319 22 64 115 249 228 260 37 237 235 239 239 324 336 359 347 334 335 344 81 133 136 149 143 138 139 142 152 154 154 153 150 154 160 163 163 164 163 161 165 165
226 232 214 205 311 117 269 292 289 216 229 263 243 267 292 303 309 333 331 319 322 286 208 158 150 153 146 144 144 147 153 159 157 156 156 164 171 172 169 165 164 161 161 158
183 258 235 256 267 279 261 266 264 260 255 250 269 268 283 296 307 306 302 300 315 279 221 177 161 156 153 151 147 154 159 163 161 161 171 176 173 171 166 164 167 164 170 173
199 243 260 287 262 257 264 262 258 254 256 259 261 267 268 273 286 288 291 289 299 311 218 188 165 158 165 169 153 159 164 167 166 172 178 176 176 170 161 157 163 172 173 183
207 247 312 265 298 341 286 241 242 244 238 240 240 242 263 265 275 274 271 284 291 299 209 186 176 169 169 173 161 162 171 172 176 178 177 179 177 165 160 160 165 176 177 172
206 175 193 280 332 249 248 181 302 259 243 228 252 224 235 256 288 284 273 273 275 275 199 185 173 170 165 168 164 169 176 180 182 182 180 183 174 163 155 164 173 169 161 160
213 202 231 240 218 279 320 11 6 341 306 244 228 248 293 308 307 276 258 241 243 224 193 181 168 160 156 165 171 170 174 180 181 182 185 183 175 166 165 168 164 163 161 161
203 211 201 192 236 253 63 337 323 305 261 38 348 322 318 310 258 266 277 210 262 190 169 162 157 153 156 170 171 166 169 172 176 186 190 184 179 177 179 175 171 171 174 169
92 201 228 239 261 260 357 321 314 226 353 319 335 321 294 284 265 300 294 279 252 204 164 155 151 157 166 172 171 165 168 179 192 193 188 181 182 185 186 177 175 172 168 162
314 298 273 249 237 313 325 331 299 308 291 297 327 315 306 287 299 289 279 247 245 156 144 158 156 156 163 172 169 165 176 193 190 188 183 178 182 185 182 177 171 169 169 162
299 171 297 209 271 269 294 218 241 271 304 307 319 309 303 308 303 296 280 266 222 161 136 152 148 146 161 172 175 170 189 188 183 184 180 177 180 183 180 176 168 162 171 156
277 222 263 303 264 316 339 314 256 303 297 305 309 317 320 305 297 293 281 293 176 178 153 150 132 155 157 175 182 188 186 183 183 181 178 176 178 176 176 176 165 167 176 173
235 330 295 273 293 323 273 324 326 322 322 330 326 318 299 297 301 286 286 8 209 177 154 147 162 172 175 177 182 189 185 183 182 182 179 180 180 176 170 167 175 190 199 200
224 266 328 315 315 313 301 316 328 321 340 332 322 313 311 298 279 276 12 9 56 137 138 150 181 169 173 175 177 186 186 186 182 172 175 183 182 178 168 163 170 195 203 202